Total_Precipitation_Accumulation
1.55 1.68 2.03 1.75 1.64 1.64 1.68 1.73 1.62 1.64 1.78 1.89 1.95 1.97 2.01 2.05 2.08 2.14 2.20 2.27 2.37 2.46 2.39 2.31 2.21 2.33 2.34 2.25 2.00 1.78 1.63 1.64 1.58 1.46 1.29 1.29 1.41 1.63 2.00 2.16 2.02 1.45 1.41
1.26 1.54 1.82 1.60 1.55 1.60 1.57 1.55 1.52 1.54 1.69 1.81 1.93 1.91 1.93 1.88 1.88 1.91 2.07 2.30 2.47 2.46 2.35 2.16 2.06 2.17 2.19 2.12 1.86 1.68 1.56 1.63 1.58 1.61 1.44 1.23 1.48 1.86 2.15 2.21 2.25 1.54 1.45
0.92 1.20 1.29 1.38 1.31 1.40 1.46 1.54 1.72 1.74 1.77 1.79 1.86 1.81 1.77 1.74 1.75 1.81 1.99 2.14 2.22 2.05 1.96 1.94 1.95 1.92 1.89 1.84 1.72 1.62 1.57 1.52 1.63 1.85 1.99 1.33 1.17 1.83 2.04 2.09 1.95 1.47 1.30
0.74 0.90 0.99 1.13 1.09 1.11 1.26 1.45 1.66 1.75 1.77 1.82 1.83 1.76 1.65 1.70 1.73 1.74 1.76 1.80 1.74 1.53 1.49 1.62 1.72 1.72 1.66 1.53 1.51 1.57 1.59 1.62 1.86 2.28 2.36 1.59 1.17 1.50 1.83 1.76 1.57 1.35 1.18
0.65 0.77 0.94 1.02 0.96 0.95 1.07 1.24 1.46 1.65 1.69 1.71 1.68 1.66 1.67 1.67 1.63 1.62 1.57 1.57 1.53 1.46 1.37 1.41 1.56 1.65 1.57 1.42 1.42 1.52 1.58 1.70 2.07 2.24 1.95 1.83 1.70 1.69 1.78 1.70 1.54 1.38 1.24
0.45 0.56 0.75 0.92 0.83 0.87 1.09 1.26 1.37 1.50 1.56 1.56 1.60 1.69 1.69 1.66 1.66 1.56 1.45 1.44 1.45 1.40 1.32 1.31 1.48 1.62 1.57 1.43 1.41 1.59 1.72 1.99 2.14 1.74 1.58 1.59 1.69 1.83 1.80 1.83 1.79 1.60 1.43
0.32 0.44 0.63 0.86 0.82 0.88 1.05 1.25 1.43 1.60 1.66 1.63 1.67 1.57 1.58 1.61 1.53 1.41 1.28 1.30 1.32 1.29 1.20 1.19 1.35 1.56 1.63 1.59 1.54 1.71 1.82 2.07 1.94 1.58 1.49 1.67 1.58 1.56 1.70 1.87 2.07 1.90 1.61
0.24 0.33 0.47 0.73 0.87 0.96 1.04 1.22 1.49 1.62 1.70 1.65 1.52 1.37 1.35 1.33 1.28 1.20 1.11 1.16 1.18 1.07 1.01 1.08 1.22 1.28 1.47 1.65 1.68 1.75 1.79 1.79 1.49 1.44 1.38 1.45 1.18 1.29 1.58 1.82 1.98 1.90 1.64
0.27 0.28 0.40 0.55 0.71 0.85 1.04 1.20 1.32 1.28 1.28 1.24 1.20 1.24 1.28 1.27 1.14 1.06 1.01 1.11 1.06 1.03 1.03 1.12 1.20 1.20 1.42 1.60 1.59 1.57 1.71 1.64 1.34 1.44 1.35 1.49 1.36 1.50 1.81 1.90 1.83 1.86 1.68
0.49 0.45 0.52 0.57 0.65 0.76 0.89 0.99 1.05 1.09 1.09 1.09 1.09 1.11 1.11 1.15 1.12 1.05 1.02 1.12 0.98 0.91 0.98 1.20 1.35 1.31 1.46 1.57 1.63 1.76 1.92 1.65 1.31 1.33 1.43 1.33 1.40 1.71 2.09 2.11 2.00 1.99 1.88
0.88 0.79 0.71 0.70 0.64 0.65 0.70 0.78 0.96 1.03 1.05 1.05 1.05 1.04 1.11 1.15 1.04 1.05 1.08 1.24 1.11 1.02 1.03 1.24 1.47 1.68 1.71 1.64 1.83 2.01 1.96 1.73 1.75 1.63 1.59 1.37 1.48 1.89 2.22 2.20 2.19 2.24 2.12
1.09 1.03 0.96 0.91 0.70 0.63 0.67 0.87 1.02 0.93 1.01 1.10 1.13 1.12 1.23 1.35 1.30 1.04 1.32 1.50 1.49 1.54 1.50 1.58 1.78 1.86 1.78 1.87 2.41 2.54 1.94 1.90 1.82 1.80 1.92 1.73 1.83 2.22 2.51 2.34 2.21 2.29 2.24
1.28 1.04 1.06 1.24 1.11 0.97 1.03 0.99 1.03 1.10 1.27 1.29 1.20 1.24 1.43 1.25 1.10 1.15 1.34 1.52 1.67 1.79 1.96 2.24 2.43 2.15 2.25 2.58 2.82 2.59 2.02 1.78 1.81 1.74 2.01 2.04 2.13 2.54 2.90 2.71 2.48 2.45 2.41
1.47 1.16 1.05 1.17 1.36 1.30 1.19 1.17 1.14 1.13 1.23 1.31 1.46 1.44 1.56 1.54 1.49 1.56 1.81 1.91 2.08 2.23 2.61 2.69 3.04 2.80 2.56 2.50 2.63 2.50 2.26 2.16 1.98 2.09 2.31 1.96 2.11 2.64 3.16 3.15 2.98 2.80 2.62
1.76 1.53 1.35 1.25 1.43 1.48 1.47 1.42 1.29 1.30 1.34 1.54 1.70 1.72 1.79 1.89 2.08 2.22 2.20 2.40 2.35 2.41 2.65 3.03 3.06 3.26 3.33 3.32 3.12 2.77 2.69 2.53 2.30 2.41 2.49 2.37 2.29 2.54 3.09 3.50 3.39 3.15 2.84
2.21 2.05 1.77 1.55 1.48 1.54 1.58 1.63 1.69 1.65 1.84 1.91 2.03 2.08 2.24 2.44 2.65 2.86 2.85 2.88 2.63 2.61 2.90 3.18 3.29 3.82 3.79 3.68 3.23 2.97 2.82 2.74 2.50 2.40 2.58 2.66 2.34 2.31 2.73 3.46 3.75 3.56 3.33
2.49 2.48 2.33 2.15 2.08 2.15 2.31 2.27 2.13 2.25 2.34 2.46 2.58 2.62 2.67 2.78 3.06 3.25 3.17 3.03 2.95 2.91 3.14 3.38 3.56 3.76 3.62 3.48 3.33 3.14 3.03 2.83 2.45 2.44 2.48 2.67 2.52 2.35 2.62 3.06 3.52 3.62 3.68
2.61 2.94 2.98 2.77 2.90 3.02 3.16 3.13 2.87 2.84 2.86 2.90 2.88 2.90 2.92 3.03 3.21 3.56 3.33 3.13 3.43 3.22 3.40 3.90 3.96 3.97 3.98 3.75 3.57 3.27 3.09 2.90 2.44 2.33 2.33 2.60 2.94 2.53 2.64 3.00 3.22 3.34 3.81
2.77 3.24 3.44 3.53 3.70 3.71 3.72 3.69 3.61 3.47 3.36 3.13 3.15 3.13 2.99 2.98 3.09 3.42 3.32 3.36 3.40 3.65 3.70 3.46 4.07 4.15 4.08 3.89 3.32 3.10 2.75 2.59 2.51 2.24 2.36 2.46 2.81 2.64 2.62 2.72 3.00 3.20 3.79
3.18 3.56 4.03 4.20 4.28 4.05 3.92 3.88 3.74 3.49 3.36 3.20 3.20 3.12 2.89 2.90 2.95 3.39 3.24 3.21 3.30 3.65 3.67 3.67 4.07 4.09 3.87 3.84 3.09 2.82 2.64 2.26 2.25 2.32 2.18 2.35 2.51 2.18 2.33 2.64 3.11 2.80 3.07
3.72 3.98 4.25 4.63 4.74 4.50 4.45 4.39 4.28 3.97 3.82 3.49 3.09 2.72 2.65 2.63 2.79 3.24 3.01 3.33 3.26 3.39 3.45 3.48 3.77 3.91 3.59 3.66 3.63 3.14 2.46 2.06 2.04 2.05 2.09 2.23 2.22 2.29 2.75 3.21 3.33 3.23 3.07
3.55 4.04 4.37 4.36 4.23 3.97 4.08 4.37 4.60 4.57 4.08 3.48 3.12 2.98 2.65 2.56 2.64 2.82 3.06 2.97 3.02 3.21 3.23 3.30 3.62 3.61 3.24 3.38 3.64 3.68 2.94 2.59 2.13 1.65 1.97 2.08 2.15 2.48 2.67 2.81 3.16 3.44 3.51
2.98 3.49 3.63 3.48 3.40 3.25 3.32 3.65 3.87 4.09 3.83 3.48 3.19 2.95 2.66 2.56 2.50 2.58 2.76 2.79 2.82 2.72 2.95 3.20 3.17 3.22 3.16 3.12 3.20 3.60 3.29 2.87 2.41 1.88 1.74 1.85 2.15 2.41 2.42 2.61 2.66 2.93 3.15
2.12 2.37 2.56 2.74 2.82 2.82 2.86 3.06 3.25 3.40 3.35 3.20 3.10 2.87 2.60 2.35 2.28 2.33 2.40 2.40 2.45 2.45 2.74 2.55 2.61 2.92 3.16 3.02 2.94 2.93 2.99 3.08 2.95 2.35 1.88 1.79 2.02 2.17 2.19 2.15 2.36 2.67 2.75
1.83 2.04 2.26 2.56 2.71 2.78 2.75 2.83 3.03 3.31 3.31 3.08 2.86 2.80 2.62 2.38 2.13 2.05 2.21 2.27 2.26 2.22 2.33 2.41 2.71 2.72 2.86 2.84 2.80 2.82 2.94 2.97 2.78 2.61 2.28 2.10 2.03 1.84 1.85 1.98 2.17 2.50 2.65
1.66 1.89 2.12 2.35 2.35 2.45 2.52 2.53 2.57 2.73 2.87 2.73 2.54 2.48 2.30 2.11 1.95 1.94 2.03 2.24 2.17 2.13 2.25 2.34 2.44 2.46 2.56 2.65 2.61 2.61 2.83 2.71 2.64 2.75 2.46 2.32 2.22 1.91 1.87 1.94 2.05 2.27 2.39